Location: Montreal
(45.5000°N, 73.5833°W)
Time: 04:02:55
(UTC-04:00)

Envisat - Pass Details

Date: 08 October 2017
Orbit: 764 x 766 km, 98.2° (Epoch: 22 October)

Event Time Altitude Azimuth Distance (km) Brightness Sun altitude
Exits shadow 19:01:12 10° 93° (E) 2,345 4.8 -7.9°
Reaches altitude 10° 19:01:23 10° 91° (E) 2,305 4.8 -7.9°
Maximum altitude 19:04:08 15° 58° (ENE) 1,990 4.7 -8.4°
Drops below altitude 10° 19:06:53 10° 25° (NNE) 2,312 5.2 -8.9°
Sets 19:10:09 0° 3° (N) 3,243 6.2 -9.4°
